Location: Cran-Gévrier
(45.9039°N, 6.1012°E)
Time: 10:13:34
(UTC+00:00)

Radarsat Rocket - Pass Details

Date: 09 February 2023
Orbit: 933 x 1491 km, 100.6° (Epoch: 31 March)

Event Time Altitude Azimuth Distance (km) Brightness Sun altitude
Rises 17:34:14 0° 164° (SSE) 3,668 7.0 -7.8°
Reaches altitude 10° 17:36:34 10° 166° (SSE) 2,768 6.4 -8.2°
Maximum altitude 17:42:47 81° 253° (WSW) 1,101 4.4 -9.2°
Drops below altitude 10° 17:49:52 10° 342° (NNW) 3,134 6.8 -10.4°
Sets 17:52:39 0° 343° (NNW) 4,183 7.4 -10.9°
